Miscellaneous Local Product
Issued by NWS Hastings, NE

Home | Current Version | Previous Version | Graphics & Text | Print | Product List | Glossary On
Versions: 1 2 3 4 5 6 7 8 9 10 11 12 13 14 15 16 17 18 19 20 21 22 23 24 25 26 27 28 29 30 31 32 33 34 35 36 37 38 39 40 41 42 43 44 45 46 47 48 49 50
000
AXUS43 KGID 300602
MISGRI

GID CWA HOURLY WEATHER ROUNDUP
NATIONAL WEATHER SERVICE HASTINGS NE
100 AM CDT WED JUL 30 2014

NOTE: "FAIR" INDICATES FEW OR NO CLOUDS BELOW 12,000 FEET WITH NO
SIGNIFICANT WEATHER AND/OR OBSTRUCTIONS TO VISIBILITY.

...SOUTH CENTRAL NEBRASKA...

CITY           SKY/WX    TMP DP  RH WIND       PRES   REMARKS
GRAND ISLAND   CLOUDY    65  61  87 NE5       30.17S
HASTINGS       CLOUDY    68  54  60 E6        30.16S
KEARNEY        CLOUDY    66  57  72 E5        30.17S
ORD            MOCLDY    61  59  93 CALM      30.17S
YORK           CLOUDY    64  59  82 E5        30.16F
AURORA         CLOUDY    65  62  88 E5        30.16F
LEXINGTON      CLOUDY    69  60  75 SE8       30.18S
HOLDREGE       CLOUDY    66  59  79 E7        30.17S
HEBRON         CLOUDY    64  56  77 CALM      30.15S

...NEBRASKA PANHANDLE...

CITY           SKY/WX    TMP DP  RH WIND       PRES   REMARKS
CHADRON        CLOUDY    58  54  86 W5        30.24R
ALLIANCE       CLOUDY    65  53  65 E7        30.25S
SCOTTSBLUFF    CLOUDY    65  63  93 NW3       30.26S
SIDNEY         LGT RAIN  63  61  93 CALM      30.27S

...WESTERN AND NORTH CENTRAL NEBRASKA...

CITY           SKY/WX    TMP DP  RH WIND       PRES   REMARKS
VALENTINE      PTCLDY    54  50  86 W3        30.20S
AINSWORTH      PTCLDY    58  53  80 W3        30.19F
ONEILL         PTCLDY    61  55  78 SE3       30.18S
BROKEN BOW     CLOUDY    67  59  75 SE3       30.18F
IMPERIAL       LGT RAIN  64  61  90 NE15      30.22R
NORTH PLATTE   CLOUDY    65  60  84 E5        30.20R
MCCOOK         CLOUDY    69  59  70 NE14      30.18R

...EASTERN NEBRASKA...

CITY           SKY/WX    TMP DP  RH WIND       PRES   REMARKS
NORFOLK        CLEAR     59  54  83 CALM      30.16S
SO SIOUX CITY  CLEAR     56  54  93 CALM      30.14S
TEKAMAH        CLEAR     57  54  89 W3        30.15R
ALBION         PTCLDY    58  55  89 CALM      30.18S
OMAHA EPPLEY   PTCLDY    60  55  83 NW3       30.14R
OFFUTT AFB     CLEAR     56  56  99 CALM      30.14R
MILLARD        CLEAR     61  58  89 CALM      30.14S
LINCOLN        MOCLDY    64  57  78 N6        30.15S
NEBRASKA CITY  CLEAR     63  56  78 CALM      30.14S
BEATRICE       PTCLDY    62  57  86 NE5       30.13F
FALLS CITY     CLEAR     63  57  81 CALM      30.12S

...NORTHERN KANSAS...

CITY           SKY/WX    TMP DP  RH WIND       PRES   REMARKS
GOODLAND       RAIN      64  63  96 NW10      30.19R
HILL CITY      CLOUDY    72  56  57 E8        30.14R
NORTON         CLOUDY    70  54  56 E10       30.15S
PHILLIPSBURG   CLOUDY    72  55  56 NE10      30.15S
SMITH CENTER   CLOUDY    70  55  60 E10       30.15S
HAYS           CLOUDY    72  55  56 E10       30.12S
RUSSELL        CLOUDY    71  59  65 E8        30.10F
CONCORDIA      CLOUDY    69  58  67 NE9       30.14R
SALINA         CLOUDY    74  57  55 SE5       30.11S
TOPEKA         CLOUDY    70  63  78 CALM      30.12R



USA.gov is the U.S. government's official web portal to all federal, state and local government web resources and services.